• In Hungary
  • List of Countries
  • For 7 days
  • Water Temperature
  • Satellite Maps
  • Weather Map
  • News
  • Weather Widgets
  • user-avatar
    Login

    Hourly Weather To-Pole

    Today, 25 September, Tuesday

    Time Temperature Precipitation Wind Pressure Humidity
    00:00 +6°C° 0 mm 7 mps 732 mmHg 85%
    01:00 +7°C° 0 mm 6 mps 732 mmHg 85%
    02:00 +7°C° 0 mm 5 mps 733 mmHg 86%
    03:00 +7°C° 0 mm 5 mps 733 mmHg 85%
    04:00 +7°C° 0 mm 6 mps 734 mmHg 85%
    05:00 +7°C° 0 mm 6 mps 734 mmHg 84%
    06:00 +7°C° 0.1 mm 6 mps 735 mmHg 83%
    07:00 +7°C° 0.1 mm 6 mps 735 mmHg 82%
    08:00 +7°C° 0 mm 6 mps 735 mmHg 81%
    09:00 +7°C° 0.1 mm 6 mps 736 mmHg 78%
    10:00 +8°C° 0.1 mm 6 mps 737 mmHg 75%
    11:00 +8°C° 0.1 mm 6 mps 737 mmHg 72%
    12:00 +7°C° 0 mm 6 mps 738 mmHg 71%
    13:00 +7°C° 0 mm 6 mps 739 mmHg 71%
    14:00 +7°C° 0 mm 6 mps 740 mmHg 70%
    15:00 +7°C° 0 mm 5 mps 740 mmHg 71%
    16:00 +6°C° 0 mm 5 mps 741 mmHg 71%
    17:00 +6°C° 0 mm 4 mps 741 mmHg 71%
    18:00 +6°C° 0 mm 4 mps 742 mmHg 72%
    19:00 +6°C° 0 mm 4 mps 742 mmHg 72%
    20:00 +6°C° 0 mm 4 mps 743 mmHg 73%
    21:00 +5°C° 0 mm 4 mps 743 mmHg 76%
    22:00 +5°C° 0 mm 4 mps 744 mmHg 78%
    23:00 +4°C° 0 mm 4 mps 744 mmHg 81%

    Tomorrow, 26 September, Wednesday

    Time Temperature Precipitation Wind Pressure Humidity
    00:00 +4°C° 0 mm 3 mps 745 mmHg 84%
    01:00 +3°C° 0 mm 3 mps 745 mmHg 87%
    02:00 +2°C° 0 mm 3 mps 746 mmHg 89%
    03:00 +2°C° 0 mm 3 mps 746 mmHg 90%
    04:00 +2°C° 0 mm 3 mps 747 mmHg 91%
    05:00 +1°C° 0 mm 3 mps 747 mmHg 92%
    06:00 +2°C° 0 mm 3 mps 748 mmHg 87%
    07:00 +3°C° 0 mm 4 mps 749 mmHg 81%
    08:00 +4°C° 0 mm 4 mps 749 mmHg 75%
    09:00 +5°C° 0 mm 4 mps 749 mmHg 66%
    10:00 +7°C° 0 mm 4 mps 750 mmHg 58%
    11:00 +8°C° 0 mm 4 mps 750 mmHg 50%
    12:00 +10°C° 0 mm 4 mps 750 mmHg 49%
    13:00 +10°C° 0 mm 4 mps 750 mmHg 49%
    14:00 +11°C° 0 mm 4 mps 749 mmHg 49%
    15:00 +10°C° 0 mm 3 mps 749 mmHg 54%
    16:00 +9°C° 0 mm 3 mps 749 mmHg 60%
    17:00 +9°C° 0 mm 3 mps 749 mmHg 65%
    18:00 +8°C° 0 mm 3 mps 749 mmHg 67%
    19:00 +6°C° 0 mm 4 mps 749 mmHg 68%
    20:00 +6°C° 0 mm 4 mps 748 mmHg 69%
    21:00 +6°C° 0 mm 5 mps 748 mmHg 66%
    22:00 +6°C° 0 mm 5 mps 747 mmHg 63%
    23:00 +5°C° 0 mm 6 mps 747 mmHg 59%

    Day after tomorrow, 27 September, Thursday

    Time Temperature Precipitation Wind Pressure Humidity
    00:00 +5°C° 0.1 mm 6 mps 746 mmHg 62%
    01:00 +5°C° 0.1 mm 7 mps 745 mmHg 65%
    02:00 +5°C° 0.1 mm 7 mps 744 mmHg 67%
    03:00 +5°C° 0.4 mm 8 mps 743 mmHg 71%
    04:00 +5°C° 0.4 mm 8 mps 742 mmHg 75%
    05:00 +3°C° 0.4 mm 9 mps 741 mmHg 78%
    06:00 +5°C° 0.4 mm 9 mps 740 mmHg 81%
    07:00 +5°C° 0.4 mm 9 mps 740 mmHg 83%
    08:00 +5°C° 0.4 mm 9 mps 739 mmHg 86%
    09:00 +6°C° 0.3 mm 9 mps 739 mmHg 86%
    10:00 +6°C° 0.3 mm 8 mps 739 mmHg 87%
    11:00 +6°C° 0.3 mm 8 mps 738 mmHg 88%
    12:00 +7°C° 0.3 mm 8 mps 738 mmHg 88%
    13:00 +8°C° 0.3 mm 7 mps 738 mmHg 88%
    14:00 +9°C° 0.3 mm 7 mps 738 mmHg 89%
    15:00 +9°C° 0.2 mm 6 mps 739 mmHg 89%
    16:00 +9°C° 0.2 mm 6 mps 739 mmHg 89%
    17:00 +9°C° 0.2 mm 5 mps 739 mmHg 89%
    18:00 +9°C° 0 mm 5 mps 740 mmHg 90%
    19:00 +8°C° 0 mm 4 mps 740 mmHg 91%
    20:00 +9°C° 0 mm 3 mps 741 mmHg 92%
    21:00 +8°C° 0 mm 3 mps 741 mmHg 93%
    22:00 +8°C° 0 mm 3 mps 741 mmHg 93%
    23:00 +8°C° 0 mm 3 mps 741 mmHg 94%

    28 September, Friday

    Time Temperature Precipitation Wind Pressure Humidity
    00:00 +7°C° 0 mm 3 mps 741 mmHg 94%
    01:00 +7°C° 0 mm 3 mps 742 mmHg 95%
    02:00 +5°C° 0 mm 3 mps 742 mmHg 95%
    03:00 +5°C° 0 mm 3 mps 742 mmHg 95%
    04:00 +5°C° 0 mm 3 mps 741 mmHg 95%
    05:00 +4°C° 0 mm 3 mps 741 mmHg 95%
    06:00 +6°C° 0 mm 4 mps 741 mmHg 91%
    07:00 +7°C° 0 mm 5 mps 741 mmHg 87%
    08:00 +8°C° 0 mm 6 mps 740 mmHg 83%
    09:00 +10°C° 0 mm 7 mps 740 mmHg 80%
    10:00 +11°C° 0 mm 7 mps 739 mmHg 78%
    11:00 +13°C° 0 mm 8 mps 739 mmHg 75%
    12:00 +13°C° 0 mm 8 mps 738 mmHg 74%
    13:00 +15°C° 0 mm 8 mps 738 mmHg 73%
    14:00 +16°C° 0 mm 9 mps 737 mmHg 72%
    15:00 +15°C° 0.3 mm 8 mps 737 mmHg 76%
    16:00 +15°C° 0.3 mm 8 mps 736 mmHg 79%
    17:00 +13°C° 0.3 mm 8 mps 736 mmHg 83%
    18:00 +12°C° 0.5 mm 7 mps 736 mmHg 83%
    19:00 +11°C° 0.5 mm 6 mps 737 mmHg 83%
    20:00 +10°C° 0.5 mm 6 mps 738 mmHg 83%
    21:00 +9°C° 0 mm 5 mps 739 mmHg 85%
    22:00 +7°C° 0 mm 4 mps 740 mmHg 88%
    23:00 +5°C° 0 mm 3 mps 740 mmHg 91%

    29 September, Saturday

    Time Temperature Precipitation Wind Pressure Humidity
    00:00 +4°C° 0 mm 3 mps 741 mmHg 92%
    01:00 +5°C° 0 mm 2 mps 741 mmHg 93%
    02:00 +4°C° 0 mm 2 mps 742 mmHg 94%
    03:00 +4°C° 0 mm 2 mps 742 mmHg 93%
    04:00 +3°C° 0 mm 2 mps 743 mmHg 93%
    05:00 +4°C° 0 mm 1 mps 743 mmHg 92%
    06:00 +5°C° 0 mm 1 mps 743 mmHg 88%
    07:00 +6°C° 0 mm 1 mps 744 mmHg 83%
    08:00 +7°C° 0 mm 1 mps 744 mmHg 79%
    09:00 +8°C° 0 mm 1 mps 744 mmHg 72%
    10:00 +8°C° 0 mm 2 mps 745 mmHg 64%
    11:00 +9°C° 0 mm 2 mps 745 mmHg 57%
    12:00 +9°C° 0 mm 2 mps 745 mmHg 57%
    13:00 +10°C° 0 mm 2 mps 745 mmHg 56%
    14:00 +10°C° 0 mm 2 mps 745 mmHg 55%
    15:00 +9°C° 0 mm 2 mps 745 mmHg 60%
    16:00 +9°C° 0 mm 2 mps 746 mmHg 65%
    17:00 +9°C° 0 mm 1 mps 746 mmHg 69%
    18:00 +8°C° 0 mm 1 mps 747 mmHg 74%
    19:00 +6°C° 0 mm 2 mps 747 mmHg 78%
    20:00 +5°C° 0 mm 2 mps 748 mmHg 82%
    21:00 +4°C° 0 mm 2 mps 748 mmHg 85%
    22:00 +4°C° 0 mm 2 mps 748 mmHg 87%
    23:00 +3°C° 0 mm 2 mps 749 mmHg 89%

    30 September, Sunday

    Time Temperature Precipitation Wind Pressure Humidity
    00:00 +3°C° 0 mm 2 mps 749 mmHg 90%
    01:00 +2°C° 0 mm 2 mps 749 mmHg 91%
    02:00 +2°C° 0 mm 2 mps 750 mmHg 92%
    03:00 +2°C° 0 mm 2 mps 750 mmHg 92%
    04:00 +2°C° 0 mm 1 mps 750 mmHg 92%
    05:00 +2°C° 0 mm 1 mps 751 mmHg 93%
    06:00 +3°C° 0 mm 1 mps 751 mmHg 87%
    07:00 +5°C° 0 mm 1 mps 751 mmHg 81%
    08:00 +6°C° 0 mm 1 mps 752 mmHg 74%
    09:00 +7°C° 0 mm 1 mps 752 mmHg 67%
    10:00 +9°C° 0 mm 1 mps 752 mmHg 59%
    11:00 +10°C° 0 mm 1 mps 752 mmHg 51%
    12:00 +11°C° 0 mm 1 mps 752 mmHg 48%
    13:00 +11°C° 0 mm 1 mps 751 mmHg 45%
    14:00 +10°C° 0 mm 2 mps 751 mmHg 42%
    15:00 +10°C° 0 mm 1 mps 751 mmHg 47%
    16:00 +9°C° 0 mm 1 mps 751 mmHg 51%
    17:00 +8°C° 0 mm 1 mps 750 mmHg 56%
    18:00 +7°C° 0 mm 1 mps 751 mmHg 58%
    19:00 +6°C° 0 mm 1 mps 751 mmHg 60%
    20:00 +5°C° 0 mm 1 mps 751 mmHg 62%
    21:00 +5°C° 0 mm 1 mps 751 mmHg 63%
    22:00 +5°C° 0 mm 1 mps 751 mmHg 64%
    23:00 +4°C° 0 mm 1 mps 751 mmHg 66%
    Show more